Weather History for Poplar Bluff, MO

Change the Weather History Date:

Monday, January 28, 2013

  Actual Average Record
Temperature  
Mean Temperature 62 °F -  
Max Temperature 66 °F 46 °F 69 °F (1970)
Min Temperature 57 °F 24 °F -4 °F (1963)
Degree Days  
Heating Degree Days 4    
Growing Degree Days 12 (Base 50)    
Moisture  
Dew Point 58 °F    
Average Humidity 84    
Maximum Humidity 90    
Minimum Humidity 79    
Precipitation  
Precipitation 0.02 in - - ()
Sea Level Pressure  
Sea Level Pressure 30.01 in    
Wind  
Wind Speed 12 mph (South)    
Max Wind Speed 20 mph    
Max Gust Speed 29 mph    
Visibility 8 miles    
Events      
Averages and records for this station are not official NWS values.
T = Trace of Precipitation, MM = Missing Value Source: NWS Daily Summary

Daily Weather History Graph

Daily Weather History Graph

Search for Another Location

Airport:

Trip Planner

Search our weather history database for the weather conditions in past years. The results will help you decide how hot, cold, wet, or windy it might be!

Date:

Astronomy

Jan. 28, 2013 Rise Set
Actual Time 7:06 AM CST 5:22 PM CST
Civil Twilight 6:38 AM CST 5:50 PM CST
Nautical Twilight 6:07 AM CST 6:21 PM CST
Astronomical Twilight 5:37 AM CST 6:52 PM CST
Moon 7:13 PM CST (1/28) 7:35 AM CST (1/28)
Length of Visible Light 11h 11m
Length of Day
10h 16m
Full, 98% of the Moon is Illuminated
Jan 28
Full
Feb 3
Last Quarter
Feb 10
New
Feb 17
First Quarter
Feb 25
Full

Hourly Weather History & Observations

Time (CST) Temp. Dew Point Humidity Pressure Visibility Wind Dir Wind Speed Gust Speed Precip Events Conditions
12:53 AM 57.0 °F 51.1 °F 81% 30.05 in 10.0 mi South 11.5 mph - N/A   Mostly Cloudy
1:53 AM 57.0 °F 52.0 °F 83% 30.04 in 10.0 mi South 11.5 mph - N/A   Mostly Cloudy
2:53 AM 57.9 °F 52.0 °F 81% 30.04 in 10.0 mi South 12.7 mph - N/A   Overcast
3:53 AM 59.0 °F 53.1 °F 81% 30.04 in 10.0 mi South 11.5 mph - N/A   Overcast
4:53 AM 60.1 °F 54.0 °F 80% 30.04 in 10.0 mi SSW 11.5 mph - N/A   Overcast
5:53 AM 59.0 °F 54.0 °F 83% 30.04 in 10.0 mi SSW 10.4 mph - N/A   Overcast
6:53 AM 59.0 °F 55.0 °F 87% 30.05 in 7.0 mi SSW 10.4 mph - N/A   Overcast
7:53 AM 59.0 °F 55.9 °F 90% 30.06 in 3.0 mi South 6.9 mph - N/A   Overcast
8:11 AM 59.0 °F 55.4 °F 88% 30.06 in 2.5 mi South 9.2 mph - N/A   Overcast
8:53 AM 60.1 °F 57.0 °F 90% 30.06 in 2.0 mi SSW 10.4 mph - 0.01 in   Overcast
9:04 AM 60.8 °F 57.2 °F 88% 30.06 in 1.5 mi SSW 11.5 mph - N/A   Overcast
9:40 AM 60.8 °F 57.2 °F 88% 30.06 in 2.0 mi SSW 11.5 mph - 0.01 in   Overcast
9:53 AM 61.0 °F 57.9 °F 90% 30.06 in 4.0 mi SSW 10.4 mph - 0.01 in   Overcast
10:13 AM 62.6 °F 57.2 °F 82% 30.06 in 7.0 mi SSW 13.8 mph - N/A   Overcast
10:53 AM 63.0 °F 59.0 °F 87% 30.06 in 8.0 mi SSW 15.0 mph - N/A   Overcast
11:53 AM 64.0 °F 60.1 °F 87% 30.03 in 8.0 mi SSW 17.3 mph 26.5 mph N/A   Overcast
12:53 PM 64.9 °F 60.1 °F 84% 29.99 in 9.0 mi SSW 19.6 mph 25.3 mph N/A   Overcast
1:53 PM 66.9 °F 61.0 °F 81% 29.97 in 9.0 mi SSW 19.6 mph 28.8 mph N/A   Overcast
2:13 PM 66.2 °F 60.8 °F 83% 29.98 in 9.0 mi SSW 16.1 mph 24.2 mph N/A   Overcast
2:23 PM 66.2 °F 60.8 °F 83% 29.98 in 9.0 mi SSW 13.8 mph 24.2 mph N/A   Overcast
2:53 PM 66.9 °F 60.1 °F 79% 29.98 in 10.0 mi SSW 17.3 mph 26.5 mph N/A   Overcast
3:05 PM 66.2 °F 60.8 °F 83% 29.98 in 10.0 mi South 17.3 mph 24.2 mph N/A   Overcast
3:53 PM 66.9 °F 61.0 °F 81% 29.98 in 10.0 mi South 15.0 mph - N/A   Overcast
4:53 PM 66.0 °F 60.1 °F 81% 29.98 in 10.0 mi South 11.5 mph - N/A   Overcast
5:53 PM 64.9 °F 60.1 °F 84% 29.98 in 10.0 mi South 9.2 mph - N/A   Mostly Cloudy
6:26 PM 64.4 °F 60.8 °F 88% 29.98 in 10.0 mi SSE 8.1 mph - N/A   Overcast
6:53 PM 64.0 °F 59.0 °F 84% 29.98 in 10.0 mi South 6.9 mph - N/A   Overcast
7:24 PM 64.4 °F 59.0 °F 83% 29.98 in 10.0 mi South 8.1 mph - N/A   Mostly Cloudy
7:53 PM 64.0 °F 59.0 °F 84% 29.98 in 10.0 mi South 10.4 mph - N/A   Mostly Cloudy
8:53 PM 64.0 °F 59.0 °F 84% 29.99 in 10.0 mi South 11.5 mph - N/A   Overcast
9:53 PM 63.0 °F 57.9 °F 84% 29.99 in 10.0 mi South 11.5 mph - N/A   Clear
10:49 PM 62.6 °F 57.2 °F 82% 30.00 in 10.0 mi South 11.5 mph - N/A   Mostly Cloudy
10:53 PM 63.0 °F 57.9 °F 84% 29.99 in 10.0 mi South 10.4 mph - N/A   Mostly Cloudy
11:53 PM 63.0 °F 57.9 °F 84% 29.98 in 10.0 mi South 10.4 mph - N/A   Overcast